GW3759 Weather Reports


Display with metric or nautical units.
time (UTC)temp
F
wind
direction
speed
MPH
gust
MPH
rain 1hr
in
rain 24hr
in
rain mn
in
humidity
%
barometer
mb
20260831103007 71 338 0.0 0.0 0.00 0.02 0.00 96 1018.7
20260831101505 71 5 0.0 0.0 0.00 0.02 0.00 96 1018.6
20260831100005 71 5 0.0 0.0 0.00 0.02 0.00 96 1018.6
20260831094501 71 126 0.0 0.0 0.00 0.02 0.00 95 1018.6
20260831093012 71 160 0.0 0.0 0.00 0.02 0.00 96 1018.7
20260831091523 70 352 0.0 0.0 0.00 0.02 0.00 95 1018.5
20260831090018 71 17 0.0 0.0 0.00 0.02 0.00 95 1018.5
20260831084509 71 17 0.0 0.0 0.00 0.02 0.00 95 1018.5
20260831083005 71 17 0.0 0.0 0.00 0.02 0.00 95 1018.5
20260831081505 71 17 0.0 0.0 0.00 0.02 0.00 94 1018.5
20260831080025 71 17 0.0 0.0 0.00 0.02 0.00 95 1018.4
20260831074535 72 143 0.0 0.0 0.00 0.02 0.00 94 1018.5
20260831073008 72 212 0.0 0.0 0.00 0.02 0.00 95 1018.4
20260831071525 72 212 0.0 0.0 0.00 0.02 0.00 95 1018.4
20260831070024 72 212 0.0 0.0 0.00 0.02 0.00 95 1018.3
20260831064508 72 265 0.0 0.0 0.00 0.02 0.00 94 1018.4
20260831063027 72 265 0.0 0.0 0.00 0.02 0.00 94 1018.4
20260831061510 72 265 0.0 0.0 0.00 0.02 0.00 94 1018.6
20260831060015 73 265 0.0 0.0 0.00 0.02 0.00 93 1018.7
20260831054522 73 265 0.0 0.0 0.00 0.02 0.00 92 1018.8
20260831053015 73 265 0.0 0.0 0.00 0.02 0.00 93 1018.8
20260831051513 73 147 0.0 0.0 0.00 0.02 0.00 92 1018.9
20260831050015 73 147 0.0 0.0 0.00 0.02 0.00 92 1019.1
20260831044523 73 148 0.0 1.0 0.00 0.02 0.00 93 1019.0
20260831043028 73 147 0.0 2.0 0.00 0.02 0.00 93 1019.1
20260831041522 73 113 0.0 2.0 0.00 0.02 0.00 94 1019.3
20260831040023 73 346 0.0 0.0 0.00 0.02 0.00 95 1019.4
20260831034513 73 346 0.0 0.0 0.00 0.02 0.02 94 1019.5
20260831033028 73 346 0.0 1.0 0.02 0.02 0.02 94 1019.7
20260831031531 73 346 1.0 2.0 0.02 0.02 0.02 94 1019.7
20260831030035 74 346 0.0 2.0 0.02 0.02 0.02 92 1019.9
20260831024533 74 5 0.0 3.0 0.02 0.02 0.02 91 1019.9
20260831023021 74 273 0.0 0.0 0.00 0.00 0.00 90 1019.9
20260831021523 75 273 0.0 1.0 0.00 0.00 0.00 88 1020.0
20260831020050 75 161 0.0 6.0 0.00 0.00 0.00 89 1020.2
20260831014538 74 170 2.0 11.0 0.00 0.00 0.00 91 1020.1
20260831013018 74 96 0.0 1.0 0.00 0.00 0.00 92 1020.1
20260831011502 74 20 0.0 2.0 0.00 0.00 0.00 92 1019.8
20260831010011 74 20 0.0 1.0 0.00 0.00 0.00 91 1019.6
20260831004504 74 20 0.0 2.0 0.00 0.00 0.00 92 1019.5
20260831003003 74 20 0.0 1.0 0.00 0.00 0.00 90 1019.3
20260831001503 74 20 0.0 1.0 0.00 0.00 0.00 90 1019.2
20260831000003 75 20 0.0 2.0 0.00 0.00 0.00 90 1019.1
20260830234516 75 20 0.0 0.0 0.00 0.00 0.00 88 1019.1
20260830233005 75 20 0.0 1.0 0.00 0.00 0.00 89 1019.2
20260830231503 75 71 0.0 1.0 0.00 0.00 0.00 87 1019.3
20260830230012 75 71 0.0 9.0 0.00 0.00 0.00 83 1019.4
20260830224507 79 286 3.0 8.0 0.00 0.00 0.00 72 1019.7
20260830223018 80 360 1.0 5.0 0.00 0.00 0.00 70 1019.6
20260830221512 82 158 2.0 4.0 0.00 0.00 0.00 71 1019.4
20260830220010 83 130 0.0 1.0 0.00 0.00 0.00 73 1019.1
20260830214503 84 130 0.0 3.0 0.00 0.00 0.00 72 1018.8
20260830213002 84 131 1.0 9.0 0.00 0.00 0.00 70 1018.9
20260830211516 85 93 1.0 13.0 0.00 0.00 0.00 69 1018.9
20260830210018 86 127 4.0 10.0 0.00 0.00 0.00 68 1018.8
20260830204508 86 114 2.0 8.0 0.00 0.00 0.00 67 1018.8
20260830203005 85 143 4.0 10.0 0.00 0.00 0.00 67 1018.8
20260830201519 86 149 0.0 5.0 0.00 0.00 0.00 69 1018.9
20260830200003 85 120 2.0 7.0 0.00 0.00 0.00 68 1019.2
20260830194524 85 138 3.0 8.0 0.00 0.00 0.00 68 1019.4
20260830193004 84 117 2.0 10.0 0.00 0.00 0.00 69 1019.6
20260830191508 84 133 2.0 8.0 0.00 0.00 0.00 70 1019.6
20260830190020 83 139 2.0 8.0 0.00 0.00 0.00 69 1020.0
20260830184511 83 142 1.0 10.0 0.00 0.00 0.00 71 1020.4
20260830183007 82 155 6.0 10.0 0.00 0.00 0.00 72 1020.7
20260830181511 82 155 6.0 11.0 0.00 0.00 0.00 71 1020.8
20260830180017 81 150 5.0 14.0 0.00 0.00 0.00 74 1021.1
20260830174517 81 107 3.0 10.0 0.00 0.00 0.00 74 1021.4
20260830173026 80 143 4.0 12.0 0.00 0.00 0.00 76 1021.7
20260830171516 80 196 6.0 13.0 0.00 0.00 0.00 76 1021.9
20260830170009 79 157 4.0 13.0 0.00 0.00 0.00 77 1021.9
20260830164514 79 165 7.0 12.0 0.00 0.00 0.00 79 1022.2
20260830163028 78 144 6.0 11.0 0.00 0.00 0.00 79 1022.4
20260830161503 77 119 6.0 14.0 0.00 0.00 0.00 81 1022.7
20260830160004 77 157 6.0 12.0 0.00 0.00 0.00 82 1022.6
20260830154503 76 140 6.0 12.0 0.00 0.00 0.00 83 1022.7
20260830153011 76 156 5.0 10.0 0.00 0.00 0.00 83 1022.9
20260830151505 76 161 9.0 15.0 0.00 0.00 0.00 83 1022.9
20260830150004 76 173 9.0 14.0 0.00 0.00 0.00 82 1022.7
20260830144504 77 142 5.0 11.0 0.00 0.00 0.00 83 1022.6
20260830143003 76 128 1.0 11.0 0.00 0.00 0.00 85 1022.5
20260830141504 76 124 1.0 12.0 0.00 0.00 0.00 86 1022.6
20260830140004 75 159 6.0 14.0 0.00 0.00 0.00 87 1022.7
20260830134511 75 167 7.0 12.0 0.00 0.00 0.00 88 1022.7
20260830133010 74 106 1.0 11.0 0.00 0.00 0.00 91 1022.8
20260830131507 73 134 6.0 11.0 0.00 0.00 0.00 93 1022.7
20260830130005 72 133 4.0 10.0 0.00 0.00 0.00 94 1023.0
20260830124509 72 140 1.0 4.0 0.00 0.00 0.00 95 1023.0
20260830123003 71 131 1.0 3.0 0.00 0.00 0.00 96 1023.0
20260830121503 71 131 0.0 2.0 0.00 0.00 0.00 96 1023.3
20260830120004 71 131 0.0 2.0 0.00 0.00 0.00 96 1023.5
20260830114508 70 131 0.0 2.0 0.00 0.00 0.00 95 1023.4
20260830113009 70 131 0.0 2.0 0.00 0.00 0.00 95 1023.4
20260830111505 70 131 0.0 2.0 0.00 0.00 0.00 95 1023.3
20260830110005 71 141 0.0 1.0 0.00 0.00 0.00 95 1023.1
20260830104503 70 144 0.0 1.0 0.00 0.00 0.00 95 1023.1